Time,TemperatureF,DewpointF,PressureIn,WindDirection,WindDirectionDegrees,WindSpeedMPH,WindSpeedGustMPH,Humidity,HourlyPrecipIn,Conditions,Clouds,dailyrainin,SoftwareType,DateUTC
2013-06-06 00:01:00,71.1,44.9,29.76,ESE,112,5.3,-999.0,39,-99.99,,,0.00,Acu-Link.com,2013-06-06 06:01:00,
2013-06-06 00:17:00,70.7,45.2,29.76,NNE,22,4.7,-999.0,40,-99.99,,,0.00,Acu-Link.com,2013-06-06 06:17:00,
2013-06-06 00:32:00,70.2,44.7,29.77,North,0,2.2,-999.0,40,-99.99,,,0.00,Acu-Link.com,2013-06-06 06:32:00,
2013-06-06 00:47:00,69.3,45.8,29.78,ENE,67,0.0,-999.0,43,-99.99,,,0.00,Acu-Link.com,2013-06-06 06:47:00,
2013-06-06 01:03:00,68.0,45.3,29.77,WSW,247,0.0,-999.0,44,-99.99,,,0.00,Acu-Link.com,2013-06-06 07:03:00,
2013-06-06 01:18:00,66.9,45.4,29.78,East,90,1.1,-999.0,46,-99.99,,,0.00,Acu-Link.com,2013-06-06 07:18:00,
2013-06-06 01:33:00,66.2,45.4,29.79,SSW,202,1.7,-999.0,47,-99.99,,,0.00,Acu-Link.com,2013-06-06 07:33:00,
2013-06-06 01:48:00,65.5,45.8,29.79,ENE,67,2.2,-999.0,49,-99.99,,,0.00,Acu-Link.com,2013-06-06 07:48:00,
2013-06-06 02:04:00,64.9,45.8,29.79,NW,315,1.7,-999.0,50,-99.99,,,0.00,Acu-Link.com,2013-06-06 08:04:00,
2013-06-06 02:19:00,64.8,45.7,29.79,ENE,67,0.0,-999.0,50,-99.99,,,0.00,Acu-Link.com,2013-06-06 08:19:00,
2013-06-06 02:34:00,63.5,45.0,29.79,NNW,337,0.0,-999.0,51,-99.99,,,0.00,Acu-Link.com,2013-06-06 08:34:00,
2013-06-06 02:49:00,61.9,45.1,29.80,SW,225,0.0,-999.0,54,-99.99,,,0.00,Acu-Link.com,2013-06-06 08:49:00,
2013-06-06 03:05:00,60.6,44.8,29.79,WSW,247,0.0,-999.0,56,-99.99,,,0.00,Acu-Link.com,2013-06-06 09:05:00,
2013-06-06 03:20:00,59.7,44.9,29.79,NNE,22,0.0,-999.0,58,-99.99,,,0.00,Acu-Link.com,2013-06-06 09:20:00,
2013-06-06 03:35:00,59.2,45.3,29.80,ESE,112,0.0,-999.0,60,-99.99,,,0.00,Acu-Link.com,2013-06-06 09:35:00,
2013-06-06 03:50:00,58.6,44.8,29.80,ESE,112,0.0,-999.0,60,-99.99,,,0.00,Acu-Link.com,2013-06-06 09:50:00,
2013-06-06 04:06:00,57.7,45.2,29.80,SSW,202,0.0,-999.0,63,-99.99,,,0.00,Acu-Link.com,2013-06-06 10:06:00,
2013-06-06 04:36:00,57.0,45.8,29.80,ENE,67,0.0,-999.0,66,-99.99,,,0.00,Acu-Link.com,2013-06-06 10:36:00,
2013-06-06 04:52:00,56.8,45.6,29.81,WNW,292,0.0,-999.0,66,-99.99,,,0.00,Acu-Link.com,2013-06-06 10:52:00,
2013-06-06 05:07:00,57.0,46.2,29.81,East,90,0.0,-999.0,67,-99.99,,,0.00,Acu-Link.com,2013-06-06 11:07:00,
2013-06-06 05:38:00,56.5,45.3,29.83,SSE,157,0.0,-999.0,66,-99.99,,,0.00,Acu-Link.com,2013-06-06 11:38:00,
2013-06-06 05:53:00,56.3,45.5,29.82,East,90,0.0,-999.0,67,-99.99,,,0.00,Acu-Link.com,2013-06-06 11:53:00,
2013-06-06 06:08:00,55.6,45.2,29.83,SSW,202,0.0,-999.0,68,-99.99,,,0.00,Acu-Link.com,2013-06-06 12:08:00,
2013-06-06 06:23:00,56.3,45.5,29.83,SW,225,0.0,-999.0,67,-99.99,,,0.00,Acu-Link.com,2013-06-06 12:23:00,
2013-06-06 06:39:00,60.1,47.5,29.82,ESE,112,0.0,-999.0,63,-99.99,,,0.00,Acu-Link.com,2013-06-06 12:39:00,
2013-06-06 06:54:00,64.8,49.2,29.81,West,270,0.0,-999.0,57,-99.99,,,0.00,Acu-Link.com,2013-06-06 12:54:00,
2013-06-06 07:09:00,69.1,50.2,29.82,West,270,2.7,-999.0,51,-99.99,,,0.00,Acu-Link.com,2013-06-06 13:09:00,
2013-06-06 07:25:00,71.1,49.3,29.83,SSW,202,2.2,-999.0,46,-99.99,,,0.00,Acu-Link.com,2013-06-06 13:25:00,
2013-06-06 07:40:00,69.1,48.6,29.82,SSW,202,0.0,-999.0,48,-99.99,,,0.00,Acu-Link.com,2013-06-06 13:40:00,
2013-06-06 07:55:00,67.5,48.2,29.84,SSE,157,0.0,-999.0,50,-99.99,,,0.00,Acu-Link.com,2013-06-06 13:55:00,
2013-06-06 08:10:00,70.0,49.4,29.85,NNE,22,2.7,-999.0,48,-99.99,,,0.00,Acu-Link.com,2013-06-06 14:10:00,
2013-06-06 08:26:00,73.6,50.3,29.85,NNE,22,1.1,-999.0,44,-99.99,,,0.00,Acu-Link.com,2013-06-06 14:26:00,
2013-06-06 08:41:00,78.6,50.8,29.86,SE,135,0.0,-999.0,38,-99.99,,,0.00,Acu-Link.com,2013-06-06 14:41:00,
2013-06-06 08:56:00,80.6,51.9,29.84,ENE,67,0.0,-999.0,37,-99.99,,,0.00,Acu-Link.com,2013-06-06 14:56:00,
2013-06-06 09:11:00,81.9,51.5,29.84,East,90,1.7,-999.0,35,-99.99,,,0.00,Acu-Link.com,2013-06-06 15:11:00,
2013-06-06 09:27:00,82.8,51.5,29.84,WNW,292,1.1,-999.0,34,-99.99,,,0.00,Acu-Link.com,2013-06-06 15:27:00,
2013-06-06 09:57:00,87.8,52.5,29.85,South,180,0.0,-999.0,30,-99.99,,,0.00,Acu-Link.com,2013-06-06 15:57:00,
2013-06-06 10:13:00,88.7,53.2,29.84,West,270,1.7,-999.0,30,-99.99,,,0.00,Acu-Link.com,2013-06-06 16:13:00,
2013-06-06 10:28:00,88.2,51.9,29.83,NE,45,3.7,-999.0,29,-99.99,,,0.00,Acu-Link.com,2013-06-06 16:28:00,
2013-06-06 10:43:00,88.0,50.8,29.83,ENE,67,0.0,-999.0,28,-99.99,,,0.00,Acu-Link.com,2013-06-06 16:43:00,
2013-06-06 10:58:00,91.4,51.7,29.83,WSW,247,0.0,-999.0,26,-99.99,,,0.00,Acu-Link.com,2013-06-06 16:58:00,
2013-06-06 11:13:00,92.1,51.2,29.83,NW,315,3.7,-999.0,25,-99.99,,,0.00,Acu-Link.com,2013-06-06 17:13:00,
2013-06-06 11:29:00,91.9,51.0,29.82,NE,45,2.7,-999.0,25,-99.99,,,0.00,Acu-Link.com,2013-06-06 17:29:00,
2013-06-06 11:44:00,93.4,52.3,29.81,North,0,2.2,-999.0,25,-99.99,,,0.00,Acu-Link.com,2013-06-06 17:44:00,
2013-06-06 11:59:00,97.9,51.3,29.80,SW,225,2.2,-999.0,21,-99.99,,,0.00,Acu-Link.com,2013-06-06 17:59:00,
2013-06-06 12:15:00,99.0,49.5,29.80,East,90,3.7,-999.0,19,-99.99,,,0.00,Acu-Link.com,2013-06-06 18:15:00,
2013-06-06 12:30:00,97.7,49.8,29.78,West,270,1.7,-999.0,20,-99.99,,,0.00,Acu-Link.com,2013-06-06 18:30:00,
2013-06-06 12:45:00,97.9,47.1,29.79,West,270,1.1,-999.0,18,-99.99,,,0.00,Acu-Link.com,2013-06-06 18:45:00,
2013-06-06 13:01:00,99.9,48.8,29.77,NE,45,1.1,-999.0,18,-99.99,,,0.00,Acu-Link.com,2013-06-06 19:01:00,
2013-06-06 13:47:00,99.3,45.1,29.75,East,90,3.7,-999.0,16,-99.99,,,0.00,Acu-Link.com,2013-06-06 19:47:00,
2013-06-06 14:02:00,100.4,46.0,29.75,West,270,2.7,-999.0,16,-99.99,,,0.00,Acu-Link.com,2013-06-06 20:02:00,
2013-06-06 16:07:00,98.4,-18.0,29.68,NE,45,5.8,-999.0,1,-99.99,,,0.00,Acu-Link.com,2013-06-06 22:07:00,
2013-06-06 16:22:00,99.3,-17.5,29.70,ESE,112,4.2,-999.0,1,-99.99,,,0.00,Acu-Link.com,2013-06-06 22:22:00,
2013-06-06 16:37:00,98.2,-18.1,29.69,SW,225,2.7,-999.0,1,-99.99,,,0.00,Acu-Link.com,2013-06-06 22:37:00,
2013-06-06 16:53:00,98.1,-18.2,29.68,WSW,247,1.1,-999.0,1,-99.99,,,0.00,Acu-Link.com,2013-06-06 22:53:00,
2013-06-06 17:08:00,96.3,-19.2,29.68,ENE,67,0.0,-999.0,1,-99.99,,,0.00,Acu-Link.com,2013-06-06 23:08:00,
2013-06-06 17:23:00,92.1,-21.7,29.67,WSW,247,4.2,-999.0,1,-99.99,,,0.00,Acu-Link.com,2013-06-06 23:23:00,
2013-06-06 17:38:00,90.1,-22.9,29.67,SSE,157,3.2,-999.0,1,-99.99,,,0.00,Acu-Link.com,2013-06-06 23:38:00,
2013-06-06 17:54:00,89.4,35.6,29.67,West,270,2.7,-999.0,15,-99.99,,,0.00,Acu-Link.com,2013-06-06 23:54:00,
2013-06-06 18:09:00,87.6,37.4,29.67,West,270,7.3,-999.0,17,-99.99,,,0.00,Acu-Link.com,2013-06-07 00:09:00,
2013-06-06 18:24:00,87.6,37.4,29.66,ESE,112,3.2,-999.0,17,-99.99,,,0.00,Acu-Link.com,2013-06-07 00:24:00,
2013-06-06 18:39:00,90.3,-22.7,29.64,NNW,337,4.7,-999.0,1,-99.99,,,0.00,Acu-Link.com,2013-06-07 00:39:00,
2013-06-06 18:54:00,90.9,-22.4,29.64,SSE,157,1.1,-999.0,1,-99.99,,,0.00,Acu-Link.com,2013-06-07 00:54:00,
2013-06-06 19:09:00,89.2,-23.4,29.66,WSW,247,4.7,-999.0,1,-99.99,,,0.00,Acu-Link.com,2013-06-07 01:09:00,
2013-06-06 19:25:00,89.4,-23.3,29.68,ESE,112,0.0,-999.0,1,-99.99,,,0.00,Acu-Link.com,2013-06-07 01:25:00,
2013-06-06 19:40:00,88.3,-23.9,29.66,SSW,202,1.7,-999.0,1,-99.99,,,0.00,Acu-Link.com,2013-06-07 01:40:00,
2013-06-06 19:55:00,85.1,38.2,29.70,NNW,337,2.7,-999.0,19,-99.99,,,0.00,Acu-Link.com,2013-06-07 01:55:00,
2013-06-06 20:11:00,81.0,43.8,29.68,NW,315,4.7,-999.0,27,-99.99,,,0.00,Acu-Link.com,2013-06-07 02:11:00,
2013-06-06 20:26:00,79.5,45.3,29.68,ESE,112,3.7,-999.0,30,-99.99,,,0.00,Acu-Link.com,2013-06-07 02:26:00,
2013-06-06 20:41:00,78.4,43.5,29.71,West,270,6.3,-999.0,29,-99.99,,,0.00,Acu-Link.com,2013-06-07 02:41:00,
2013-06-06 20:56:00,77.7,42.9,29.72,North,0,1.7,-999.0,29,-99.99,,,0.00,Acu-Link.com,2013-06-07 02:56:00,
2013-06-06 21:11:00,77.5,41.8,29.72,ESE,112,2.2,-999.0,28,-99.99,,,0.00,Acu-Link.com,2013-06-07 03:11:00,
2013-06-06 21:26:00,77.0,41.4,29.73,WNW,292,5.8,-999.0,28,-99.99,,,0.00,Acu-Link.com,2013-06-07 03:26:00,
2013-06-06 21:41:00,76.5,41.0,29.74,NNE,22,3.7,-999.0,28,-99.99,,,0.00,Acu-Link.com,2013-06-07 03:41:00,
2013-06-06 21:57:00,75.7,42.1,29.75,North,0,2.7,-999.0,30,-99.99,,,0.00,Acu-Link.com,2013-06-07 03:57:00,
2013-06-06 22:12:00,75.4,41.8,29.76,South,180,3.2,-999.0,30,-99.99,,,0.00,Acu-Link.com,2013-06-07 04:12:00,
2013-06-06 22:27:00,75.0,43.9,29.76,East,90,4.7,-999.0,33,-99.99,,,0.00,Acu-Link.com,2013-06-07 04:27:00,
2013-06-06 22:42:00,74.3,47.7,29.77,SSE,157,7.3,-999.0,39,-99.99,,,0.00,Acu-Link.com,2013-06-07 04:42:00,
2013-06-06 22:57:00,73.6,50.3,29.76,SSW,202,5.8,-999.0,44,-99.99,,,0.00,Acu-Link.com,2013-06-07 04:57:00,
2013-06-06 23:13:00,73.0,50.4,29.76,East,90,4.2,-999.0,45,-99.99,,,0.00,Acu-Link.com,2013-06-07 05:13:00,
2013-06-06 23:28:00,72.3,50.3,29.78,ESE,112,4.7,-999.0,46,-99.99,,,0.00,Acu-Link.com,2013-06-07 05:28:00,
2013-06-06 23:43:00,72.5,49.9,29.78,SE,135,5.3,-999.0,45,-99.99,,,0.00,Acu-Link.com,2013-06-07 05:43:00,
2013-06-06 23:58:00,72.5,49.3,29.78,NNE,22,9.9,-999.0,44,-99.99,,,0.00,Acu-Link.com,2013-06-07 05:58:00,